www.pogodaiklimat.ru

Погода и климат >> Архив погоды >> Беларусь >> Гродно


АРХИВ ПОГОДЫ в Гродно

Время (UTC), дата Ветер
(напр.,м/с)
 
Видим.   Явления Облачность Т
(С)
Тd
(С)
f
(%)
Тe
(С)
Тes
(С)
Комфортность P
(гПа)
Po
(гПа)
Тmin
(С)
Tmax
(С)
R
(мм)
R24
(мм)
S
(см)
21 18.06 СЗ 4 10 км 9/6 800 м
[Sc Ac trans]
+18.7 +14.2 75 +19 +19 тепло 1016.8 999.4
00 19.06 СЗ 3 10 км 8/0
[Ac trans]
+16.8 +13.0 78 +17 +17 тепло 1017.5 999.9
03 19.06 СЗ 2 10 км 6/0
[Ac trans]
+14.6 +11.7 83 +14 +14 по сезону 1017.9 1000.2
06 19.06 С 2 11 км 8/0
[Ac trans]
+18.8 +11.8 64 +20 +24 тепло 1017.8 1000.4 +13.7
09 19.06 З 4 12 км 6/3 600 м
[Cu hum Ci fib]
+24.3 +11.4 44 +26 +32 жарко 1016.8 999.7
12 19.06 З 7-10
{11}
14 км 6/4 1000 м
[Cu hum Ci fib]
+26.5 +8.2 31 +26 +29 жарко 1015.7 998.7
15 19.06 З 7-10
{11}
14 км 8/8 1380 м
[Sc]
+24.3 +9.0 38 +25 +25 комфорт 1015.8 998.7
18 19.06 З 5
{10}
14 км 8/0
[Ac trans]
+22.4 +10.6 47 +24 +24 комфорт 1016.3 999.1 +26.9
21 19.06 СЗ 3 12 км 4/0
[Ac trans]
+18.9 +11.0 60 +20 +20 тепло 1017.6 1000.2
00 20.06 ЮЗ 1 10 км ясно +15.3 +9.5 68 +16 +16 тепло 1018.4 1000.7
03 20.06 ЮЗ 1 10 км 4/0
[Ac trans Ci fib]
+14.4 +10.9 79 +15 +15 тепло 1019.2 1001.5
06 20.06 З 6 12 км 4/3 600 м
[Cu hum Ci fib]
+18.6 +11.1 62 +19 +20 тепло 1019.3 1001.9 +13.3
09 20.06 З 7-10
{11}
13 км 3/3 600 м
[Cu hum]
+22.2 +6.1 35 +23 +26 комфорт 1019.1 1001.9
12 20.06 З 8-12
{12}
14 км 3/3 1000 м
[Cu hum]
+25.2 +5.1 27 +25 +27 комфорт 1018.2 1001.1
15 20.06 З 7-10
{12}
14 км ясно +26.2 +3.8 24 +25 +27 комфорт 1017.3 1000.3
18 20.06 СЗ 4
{10}
14 км ясно +24.1 +6.8 33 +24 +24 комфорт 1017.2 1000.1 +26.5
21 20.06 С 2 12 км ясно +18.1 +8.9 55 +19 +19 тепло 1017.5 1000.1
00 21.06 Ю 2 12 км ясно +16.3 +8.9 62 +16 +16 тепло 1016.6 999.0
03 21.06 Ю 3 12 км 8/0
[Ac trans]
+14.8 +8.5 66 +14 +14 по сезону 1016.1 998.4
06 21.06 Ю 3 14 км 6/0
[Ac trans]
+20.3 +11.0 55 +22 +26 комфорт 1014.0 996.8 +13.1
09 21.06 ЮЗ 6
{10}
14 км 8/6 1000 м
[Cu hum Ac trans]
+28.3 +8.6 29 +28 +30 жарко 1011.6 994.8
12 21.06 Ю 7-10
{11}
14 км 8/8 1200 м
[Cu hum]
+29.7 +8.2 26 +29 +30 жарко 1008.3 991.6
15 21.06 Ю 8-12
{13}
14 км 8/8 1200 м
[Cu hum]
+30.2 +10.5 30 +30 +31 жарко 1005.2 988.6
18 21.06 Ю 8-11
{12}
14 км 4/4 1000 м
[Cu hum]
+28.4 +13.0 39 +30 +30 жарко 1002.6 986.0 +30.4
21 21.06 СЗ 8-12
{19}
8000 м гроза, ливневой дождь 9/8 900 м
[Cb cap Ac trans]
+16.1 +14.5 90 +14 +14 по сезону 1003.6 986.3
00 22.06 З 5
{12}
10 км {гроза, ливн. осадки} 9/4 600 м
[Sc Ac trans]
+14.2 +13.1 93 +12 +12 по сезону 1006.8 989.3
03 22.06 З 4 10 км 8/6 450 м
[St Ac trans]
+12.0 +10.4 90 +10 +10 прохладно 1008.1 990.5
06 22.06 З 5 11 км 8/6 500 м
[Sc Ac trans]
+12.5 +9.3 81 +10 +11 прохладно 1009.9 992.3 +11.6 2
09 22.06 З 7-10
{11}
12 км 8/6 900 м
[Sc Ac trans]
+16.6 +5.3 47 +15 +17 по сезону 1011.0 993.5
12 22.06 ЮЗ 7-11
{11}
14 км 8/6 1000 м
[Cu hum Ci sp]
+18.4 +3.2 36 +18 +19 по сезону 1011.4 994.0
15 22.06 З 7-11
{13}
14 км 8/6 1080 м
[Cu hum Ci sp]
+18.3 +0.6 30 +18 +18 по сезону 1012.2 994.7
18 22.06 З 4
{11}
14 км 8/4 1000 м
[Sc Ci sp]
+17.3 +2.9 38 +17 +17 по сезону 1013.1 995.6 +19.2
21 22.06 З 3 13 км 8/0
[Ac trans Ci fib]
+11.2 +5.1 66 +10 +10 прохладно 1014.4 996.5
00 23.06 З 1 12 км 10/0
[As trans]
+9.3 +6.2 81 +9 +9 прохладно 1014.5 996.5
03 23.06 ЮЗ 1 12 км 9/0
[Ac trans Ci fib]
+8.6 +6.4 86 +8 +8 холодно 1014.7 996.7
06 23.06 штиль 0 13 км 9/0
[Ac trans Ci fib]
+12.9 +6.7 66 +13 +18 по сезону 1014.4 996.7 +8.5
09 23.06 ЮЗ 3 13 км 9/8 900 м
[Cu hum Ac trans]
+16.5 +5.5 48 +16 +18 по сезону 1013.3 995.8
12 23.06 Ю 2 13 км 9/8 1000 м
[Cu hum Ac trans]
+17.5 +4.8 43 +18 +20 по сезону 1012.3 994.8
15 23.06 СЗ 3 8000 м слабый ливневой дождь 9/8 900 м
[Cb calv Ac trans]
+13.5 +7.1 65 +12 +13 холодно 1012.5 994.8
18 23.06 Ю 2 12 км {ливн. осадки} 9/8 1200 м
[Sc Ac trans]
+13.2 +9.9 80 +12 +12 холодно 1011.3 993.6 +17.8 7
21 23.06 З 2 10 км 9/6 1200 м
[Sc Ac trans]
+11.2 +9.4 89 +10 +10 прохладно 1011.9 994.0
00 24.06 З 2 10 км 9/8 1000 м
[Sc Ac trans]
+10.6 +9.4 92 +9 +9 прохладно 1011.1 993.2
03 24.06 З 3 11 км 9/6 1200 м
[Sc Ac trans]
+10.1 +9.0 93 +8 +8 холодно 1010.6 992.7
06 24.06 З 4 12 км 6/3 600 м
[Sc Ac trans]
+13.1 +10.0 81 +11 +14 прохладно 1010.0 992.4 +9.8
09 24.06 З 5 13 км 8/8 800 м
[Sc]
+16.2 +8.6 61 +15 +17 прохладно 1010.1 992.6
12 24.06 З 6
{10}
13 км 8/8 900 м
[Sc]
+17.7 +6.8 49 +17 +18 прохладно 1010.1 992.6
15 24.06 СЗ 3 13 км 8/8 1000 м
[Sc]
+16.4 +6.4 52 +16 +17 прохладно 1010.1 992.6
18 24.06 СЗ 2 12 км 8/8 1000 м
[Sc]
+12.7 +7.6 71 +12 +12 холодно 1011.3 993.6 +18.2
21 24.06 ЮЗ 1 10 км 9/9 1000 м
[Sc]
+11.6 +8.8 83 +11 +11 прохладно 1012.9 995.0
00 25.06 З 2 10 км 8/0
[Ac trans]
+10.8 +8.5 86 +9 +9 прохладно 1012.9 995.0
03 25.06 З 3 9000 м слабый ливневой дождь 9/6 630 м
[Cb calv Ac trans]
+10.6 +9.2 91 +8 +9 холодно 1013.1 995.2
06 25.06 ЮЗ 3 10 км {ливн. осадки} 9/8 400 м
[St Ac trans]
+11.4 +8.8 84 +10 +10 прохладно 1014.5 996.6 +10.2 0.3
09 25.06 ЮЗ 4 8000 м слабый ливневой дождь 9/8 330 м
[Cb calv Ac trans]
+12.1 +10.4 89 +10 +11 очень
холодно
1014.3 996.6
12 25.06 ЮЗ 4 7000 м слабый ливневой дождь 9/8 360 м
[Cb calv Ac trans]
+12.9 +11.4 91 +11 +12 очень
холодно
1015.1 997.4
15 25.06 ЮЗ 4 10 км {ливн. осадки} 8/6 700 м
[Sc Ac trans]
+14.9 +10.5 75 +14 +15 холодно 1015.9 998.2
18 25.06 Ю 2 10 км {ливн. осадки} 4/4 600 м
[Sc Ac trans]
+13.8 +11.3 85 +13 +13 холодно 1016.6 998.9 +15.0 2

 

Местоположение метеостанции Гродно (Гродненская область, Беларусь): широта 53.60 долгота 24.04 высота над уровнем моря 134 м.

В архиве по умолчанию представлена погода в Гродно за последнюю неделю. Архивные данные за месяц целиком и за предыдущие месяцы, начиная с января 2011 года, Вы можете получить, выбрав интересующий диапазон дат из раскрывающегося списка и нажав кнопку "Ввод!".


*Определитесь, кто Вы:
робот инопланетянин человек

Внимание! Время в таблицах - всемирное. Для получения местного времени необходимо прибавить поправку, которая в Гродно равна 3 ч.

Смотрите также архив погоды в соседних городах и на ближайших метеорологических станциях:

Погода в Волковыске (Гродненская область, Беларусь) (55 км)
Погода в Varena (Литва) (80 км)
Погода в Bialystok (Польша) (80 км)
Погода в Alytus (Литва) (90 км)
Погода в Лиде (Гродненская область, Беларусь) (91 км)
Погода в Suwalki (Польша) (93 км)
Погода в Marijampole (Литва) (113 км)
Погода в Новогрудке (Гродненская область, Беларусь) (119 км)
Погода в Пружанах (Брестская область, Беларусь) (121 км)
Погода в Ивацевичах (Брестская область, Беларусь) (133 км)

Пояснения к столбцам:

Ветер - указаны скорость ветра в м/с - средняя за 10 мин, порывы в срок и между сроками (в фигурных скобках) и направление, откуда дует ветер: С - северный, СВ - северо-восточный, В - восточный, ЮВ - юго-восточный, Ю - южный, ЮЗ - юго-западный, З - западный, СЗ - северо-западный.
Видимость - горизонтальная дальность видимости в метрах или километрах. При видимости от 1 до 10 км при отсутствии осадков обычно наблюдается дымка, при ухудшении видимости до 1 км и менее - туман. В сухую погоду видимость может ухудшаться дымом, пылью или мглою.
Явления - указаны атмосферные явления, наблюдавшиеся в срок или в последний час перед сроком; фигурными скобками обозначены явления, наблюдавшиеся между сроками (за 1-3 часа до срока); квадратными скобками обозначены град или гололедные отложения с указанием их диаметра в мм.
Облачность - указаны через наклонную черту общая и нижняя облачность в баллах и высота нижней границы облаков в метрах; квадратными скобками обозначены формы облаков: Ci - перистые, Cs - перисто-слоистые, Cc - перисто-кучевые, Ac - высококучевые, As - высокослоистые, Sc - слоисто-кучевые, Ns - слоисто-дождевые, Cu - кучевые, Cb - кучево-дождевые. Подробнее классификацию облаков см. в Атласе облаков (PDF).
T - Температура воздуха - температура, измеренная на высоте 2 м над землей.
Td - Температура точки росы - температура, при понижении до которой содержащийся в воздухе водяной пар достигнет насыщения.
f - Относительная влажность воздуха - влажноcть воздуха, измеренная на высоте 2 м над землей.
Te - Эффективная температура - температура, которую ощущает одетый по сезону человек в тени. Характеристика душности погоды. При расчете учитывается влияние влажности воздуха и скорости ветра на теплоощущения человека.
Tes - Эффективная температура на солнце - температура, которую ощущает человек, с поправкой на солнечный нагрев. Характеристика знойности погоды. Зависит от высоты солнца над горизонтом, облачности и скорости ветра. Ночью, в пасмурную погоду, а также при ветре 12 м/с и более поправка равна нулю.
P - Атмосферное давление - приведенное к уровню моря атмосферное давление.
Po - Атмосферное давление - измеренное на уровне метеостанции атмосферное давление.
Tmin - Минимальная температура - минимум температуры воздуха на высоте 2 м над землей.
Tmax - Максимальная температура - максимум температуры воздуха на высоте 2 м над землей.
R - Количество осадков - Количество выпавших осадков за период времени, мм. При наведении курсора мыши на число - период времени, за который выпало указанное количество осадков.
R24 - Количество осадков - Количество выпавших осадков за 24 часа, мм.
S - Снежный покров - Высота снежного покрова, см. При наведении курсора мыши на число - состояние снежного покрова и степень покрытия местности в баллах.